Weather History for Piney Island, NC

Change the Weather History Date:

Tuesday, March 13, 2012

  Actual Average (KMRH) Record (KMRH)
Temperature  
Mean Temperature 65 °F -  
Max Temperature 75 °F 65 °F 79 °F (1990)
Min Temperature 55 °F 46 °F 24 °F (1960)
Growing Degree Days 15 (Base 50)    
Moisture  
Dew Point 54 °F    
Average Humidity 69    
Maximum Humidity 84    
Minimum Humidity 50    
Precipitation  
Precipitation 0.00 in - - ()
Sea Level Pressure  
Sea Level Pressure 30.25 in    
Wind  
Wind Speed 8 mph (SSW)    
Max Wind Speed 20 mph    
Max Gust Speed 25 mph    
Visibility 10 miles    
Events Rain    
Averages and records for this station are not official NWS values.
T = Trace of Precipitation, MM = Missing Value Source: NWS Daily Summary

Daily Weather History Graph

Daily Weather History Graph

Search for Another Location

Airport:

Trip Planner

Search our weather history database for the weather conditions in past years. The results will help you decide how hot, cold, wet, or windy it might be!

Date:

Astronomy

Mar. 13, 2012 Rise Set
Actual Time 7:18 AM EDT 7:12 PM EDT
Civil Twilight 6:53 AM EDT 7:37 PM EDT
Nautical Twilight 6:24 AM EDT 8:06 PM EDT
Astronomical Twilight 5:54 AM EDT 8:36 PM EDT
Moon 12:27 AM EDT (3/13) 10:44 AM EDT (3/13)
Length of Visible Light 12h 44m
Length of Day
11h 53m
Waning Gibbous, 66% of the Moon is Illuminated
Mar 13
Waning Gibbous
Mar 14
Last Quarter
Mar 22
New
Mar 30
First Quarter
Apr 6
Full

Hourly Weather History & Observations

Time (EDT) Temp. Dew Point Humidity Pressure Visibility Wind Dir Wind Speed Gust Speed Precip Events Conditions
12:56 AM 55.0 °F 48.9 °F 80% 30.31 in 10.0 mi SSW 4.6 mph - N/A   Clear
1:56 AM 55.9 °F 51.1 °F 84% 30.30 in 10.0 mi South 4.6 mph - N/A   Clear
2:56 AM 57.0 °F 52.0 °F 83% 30.29 in 10.0 mi South 3.5 mph - N/A   Clear
3:56 AM 57.0 °F 52.0 °F 83% 30.27 in 10.0 mi South 4.6 mph - N/A   Mostly Cloudy
4:56 AM 57.0 °F 51.1 °F 81% 30.27 in 10.0 mi South 4.6 mph - N/A   Overcast
5:56 AM 57.0 °F 50.0 °F 77% 30.28 in 10.0 mi Calm Calm - N/A   Overcast
6:56 AM 59.0 °F 51.1 °F 75% 30.30 in 10.0 mi South 3.5 mph - N/A   Overcast
7:56 AM 59.0 °F 52.0 °F 78% 30.31 in 10.0 mi SW 4.6 mph - N/A   Overcast
8:56 AM 63.0 °F 54.0 °F 72% 30.31 in 10.0 mi SSW 5.8 mph - 0.00 in   Overcast
9:56 AM 66.0 °F 54.0 °F 65% 30.32 in 10.0 mi SSW 6.9 mph - 0.00 in   Overcast
10:56 AM 64.9 °F 55.0 °F 70% 30.31 in 10.0 mi West 8.1 mph - 0.00 in Rain Light Rain
11:56 AM 68.0 °F 55.0 °F 63% 30.30 in 10.0 mi WSW 12.7 mph - 0.00 in   Overcast
12:56 PM 68.0 °F 57.0 °F 68% 30.28 in 10.0 mi SSW 11.5 mph - 0.00 in   Overcast
1:56 PM 70.0 °F 57.0 °F 63% 30.25 in 10.0 mi SSW 16.1 mph - N/A   Mostly Cloudy
2:56 PM 73.9 °F 57.0 °F 55% 30.22 in 10.0 mi SW 17.3 mph 24.2 mph N/A   Mostly Cloudy
3:54 PM 75.2 °F 55.4 °F 50% 30.18 in 2.5 mi SSW 19.6 mph 25.3 mph N/A   Haze
3:56 PM 75.0 °F 55.9 °F 51% 30.20 in 5.0 mi SSW 18.4 mph - N/A   Haze
4:56 PM 73.9 °F 55.9 °F 53% 30.19 in 10.0 mi SSW 18.4 mph 24.2 mph N/A   Clear
5:56 PM 72.0 °F 55.9 °F 57% 30.19 in 10.0 mi SSW 15.0 mph 23.0 mph N/A   Partly Cloudy
6:56 PM 68.0 °F 54.0 °F 61% 30.19 in 10.0 mi South 13.8 mph - N/A   Partly Cloudy
7:56 PM 66.0 °F 54.0 °F 65% 30.19 in 10.0 mi SSW 12.7 mph - N/A   Scattered Clouds
8:56 PM 64.0 °F 55.9 °F 75% 30.21 in 10.0 mi SSW 12.7 mph - N/A   Clear
9:56 PM 64.9 °F 57.0 °F 75% 30.22 in 10.0 mi SSW 10.4 mph - N/A   Clear
10:56 PM 64.9 °F 57.0 °F 75% 30.22 in 10.0 mi SSW 10.4 mph - N/A   Clear
11:56 PM 64.9 °F 57.0 °F 75% 30.22 in 10.0 mi SW 10.4 mph - N/A   Overcast